SCP
-0 -0 -0 -0 -0 -0 -0 -0 0 -0 0 0 0 0 0 0 0 0 0 0 0 0 0 0 0 0 0 0 0 0 0 0 0 0 0 0 0 0 0 0 0 0 0 0
0 0 -0 -0 -0 -0 -0 -0 -0 -0 0 0 0 0 0 0 0 0 0 0 0 0 0 0 0 0 0 0 0 0 0 0 0 0 0 0 0 0 0 0 0 0 0 0
0 0 0 0 -0 -0 -0 -0 -0 0 0 0 -0 0 0 0 0 0 0 0 0 0 0 0 0 0 0 0 0 0 0 0 0 0 0 0 0 0 0 0 0 0 0 0
0 0 0 0 0 0 0 -0 -0 0 0 0 0 0 0 0 0 0 0 0 0 0 0 0 0 0 0 0 0 0 0 0 0 0 0 0 0 0 0 0 0 0 0 0
0 0 0 0 0 0 0 0 -0 0 0 0 0 -0 -0 0 0 0 0 0 0 0 0 0 0 0 0 0 0 0 0 0 -0 0 0 0 0 0 0 0 0 0 0 0
0 0 0 0 0 0 0 0 0 0 0 0 0 -0 0 0 0 0 0 0 0 0 0 0 0 0 0 0 0 0 0 0 0 0 0 0 0 0 0 0 0 0 0 0
0 0 0 0 0 0 0 0 0 0 0 0 0 0 0 0 0 0 0 0 0 0 0 0 0 0 0 0 0 0 0 0 0 0 0 0 0 0 0 0 0 0 0 0
0 0 0 0 0 0 0 0 0 0 0 0 0 0 0 0 0 0 -0 -0 -0 -0 -0 -0 -0 -0 -0 -0 -0 0 0 0 0 0 0 0 0 0 0 0 0 0 0 0
0 0 0 0 0 0 0 0 0 0 0 0 0 0 0 0 0 -0 -0 -0 -0 -0 -0 -0 -0 -0 -0 0 0 0 0 0 0 0 0 0 0 0 0 0 0 0 0 0
0 0 0 0 0 0 0 0 0 -0 -0 -0 -0 -0 -0 -0 -0 -0 -0 -0 -0 -0 -0 -0 -0 -0 0 0 0 0 0 0 0 0 0 0 0 0 0 0 0 0 0 0
0 0 0 0 0 0 0 0 -0 -0 -0 -0 0 -0 0 -0 -0 -0 -0 -0 0 0 0 0 0 0 0 0 0 0 0 0 0 0 0 0 0 0 0 0 0 0 0 0
-0 0 0 0 0 0 -0 -0 -0 -0 0 -0 -0 -0 0 -0 0 0 0 0 0 0 0 0 0 0 0 0 0 0 0 0 0 0 0 0 0 0 0 0 0 0 0 0
-0 0 0 0 -0 0 -0 0 0 0 -0 0 0 0 0 0 0 0 0 0 0 -0 -0 0 0 0 0 0 0 0 0 0 0 0 0 0 0 0 0 0 0 0 0 0
-0 -0 0 -0 -0 -0 0 0 0 0 0 0 0 0 0 0 0 0 0 0 0 0 0 0 0 0 0 0 0 0 -0 -0 -0 -0 -0 -0 -0 0 0 0 0 0 0 0
0 -0 -0 -0 0 0 0 0 0 0 0 0 0 0 0 0 0 0 -0 0 0 0 0 0 0 0 0 0 0 0 0 0 0 0 0 0 0 0 0 0 0 0 0 0
0 0 0 0 0 0 0 0 0 0 0 0 0 0 0 0 0 0 0 0 0 0 0 0 0 0 0 0 0 0 0 0 0 0 0 0 0 -0 -0 -0 -0 -0 -0 -0
0 0 0 0 0 0 0 0 0 0 0 0 0 0 0 0 0 0 0 0 0 0 0 0 0 0 0 0 0 0 -0 -0 -0 -0 -0 -0 -0 -0 -0 -0 -0 -0 -0 -0
0 0 0 0 0 0 0 0 0 0 0 0 0 0 0 0 0 0 0 0 0 0 0 0 0 0 0 0 -0 -0 -0 -0 -0 -0 -0 -0 -0 -0 -0 -0 -0 -0 -0 -0
0 0 0 0 0 0 0 0 0 0 0 0 0 0 0 0 0 0 0 0 0 0 0 0 -0 -0 0 0 -0 -0 -0 -0 -0 -0 -0 -0 -0 -0 -0 -0 -0 -0 -0 -0
0 0 0 0 0 0 0 0 0 0 0 0 0 0 0 0 0 0 0 0 0 0 0 0 0 0 0 0 -0 -0 -0 -0 -0 -0 -0 -0 0 0 0 0 0 0 0 0
0 0 0 0 0 0 0 0 0 0 0 0 0 0 0 0 0 0 0 0 0 0 0 0 0 0 0 0 0 0 0 0 -0 0 0 0 0 0 0 0 0 0 0 0
0 0 0 0 0 0 0 0 0 0 0 0 0 0 0 0 0 0 0 0 0 0 0 0 0 0 0 0 0 0 0 0 0 0 0 0 0 0 0 0 0 0 0 0
0 0 0 0 0 0 0 0 0 0 0 0 0 0 0 0 0 0 0 0 0 0 0 0 0 0 0 0 0 0 0 0 0 0 0 0 0 0 0 0 0 0 0 0
0 0 0 0 0 0 0 0 0 0 0 0 0 0 0 0 0 0 0 0 0 0 0 0 0 0 0 0 0 0 0 0 0 0 0 0 0 0 0 0 0 0 0 0
0 0 0 0 0 0 0 0 0 0 0 0 0 0 0 0 0 0 0 0 0 0 0 0 0 0 0 0 0 0 0 0 0 0 0 0 0 0 0 0 0 0 0 0
0 0 0 0 0 0 0 0 0 0 0 0 0 0 0 0 0 0 0 0 0 0 0 0 0 0 0 0 0 0 0 0 0 0 0 0 0 0 0 0 0 0 0 0
0 0 0 0 0 0 0 0 0 0 0 0 0 0 0 0 0 0 0 0 0 0 0 0 0 0 0 0 0 0 0 0 0 0 0 0 0 0 0 0 0 0 0 0
Wind_Speed_500mb
36 35 24 26 48 42 35 27 16 20 17 27 27 17 20 29 34 53 51 43 38 39 37 34 33 29 29 29 27 25 30 25 24 22 21 26 38 40 44 43 26 16 23 30
10 10 20 14 51 39 45 40 23 23 19 26 29 31 38 41 46 57 57 57 49 50 48 41 42 38 32 30 33 34 40 45 49 48 51 53 47 33 22 26 32 37 32 29
13 27 27 6 46 30 21 39 24 19 16 21 34 36 39 48 59 61 62 66 65 63 66 61 67 68 66 68 72 81 71 64 54 44 37 34 29 28 31 27 22 20 21 24
13 24 8 9 34 19 25 47 54 35 26 22 30 71 86 71 67 70 73 75 76 79 85 81 79 87 72 60 57 57 53 46 37 27 23 20 18 19 18 17 16 15 18 22
9 12 3 25 41 22 19 32 55 42 36 23 32 93 85 80 83 84 89 90 87 79 79 74 73 66 60 53 46 41 33 24 22 19 20 14 9 9 11 12 13 19 25 29
9 10 19 29 53 78 15 33 58 51 39 36 32 46 19 65 84 87 86 87 79 76 72 67 56 49 47 43 38 34 32 31 25 20 14 11 7 2 7 13 18 21 23 26
20 10 8 41 65 41 22 15 56 55 46 55 35 31 37 79 86 83 80 77 71 66 64 58 49 42 46 47 47 43 38 32 28 25 22 19 17 13 12 16 20 24 27 29
12 14 14 71 28 19 19 38 42 53 52 56 61 74 83 85 81 77 75 70 66 63 64 57 54 52 56 57 48 40 33 30 29 26 25 22 21 20 21 22 24 25 26 26
14 8 13 30 29 41 41 32 43 43 44 48 61 68 73 77 76 76 75 72 68 67 62 59 57 54 55 53 43 37 31 34 35 34 34 33 31 31 30 30 32 36 38 40
3 13 16 39 34 37 37 36 34 40 45 53 65 67 73 70 70 70 69 68 64 60 62 63 58 54 54 47 42 39 37 38 38 36 35 34 34 36 38 39 42 45 49 53
6 10 5 32 34 27 26 34 42 45 48 49 56 60 62 64 64 64 62 59 58 60 59 58 51 50 48 45 41 39 38 38 37 37 37 38 39 42 43 43 45 48 50 52
6 9 7 12 21 21 28 35 37 39 46 48 51 55 57 61 59 58 57 54 55 56 55 54 50 49 47 45 42 41 38 40 42 41 40 40 40 38 41 46 47 49 52 54
5 5 9 11 23 25 29 32 34 38 42 43 47 50 53 56 53 52 52 52 53 54 51 48 46 46 46 44 41 41 42 41 40 42 45 47 49 52 52 47 46 49 52 56
3 7 7 6 10 22 27 30 31 35 38 42 43 43 44 47 46 47 50 49 45 43 43 42 41 44 46 44 45 45 45 46 48 50 51 52 52 53 55 58 63 62 58 63
9 8 14 18 17 18 20 21 23 32 34 37 35 38 37 40 44 45 42 39 37 37 39 39 41 44 43 42 42 42 42 44 46 46 47 45 46 47 47 51 54 62 69 70
20 22 22 22 24 20 17 20 22 30 29 31 29 31 33 35 38 38 37 34 30 35 36 34 33 35 33 33 35 36 36 35 35 37 41 46 48 53 58 60 65 72 76 79
31 25 25 24 23 20 18 19 20 24 27 27 28 30 31 32 33 33 33 31 31 31 32 31 37 35 35 33 33 36 41 44 47 50 53 57 60 63 64 68 71 75 78 82
23 19 22 19 23 22 23 22 23 24 25 26 27 27 26 27 29 29 27 24 23 25 30 34 32 31 35 39 40 44 47 51 54 56 59 60 63 66 68 72 77 81 86 88
29 29 29 28 25 24 23 23 23 24 23 23 22 21 21 23 24 23 21 18 21 25 30 33 34 36 38 42 45 48 50 51 54 57 61 65 68 71 75 80 84 87 90 92
33 32 29 27 26 21 21 23 22 21 22 20 17 16 17 19 20 18 17 18 25 30 31 30 30 34 39 42 43 47 52 57 61 65 68 70 73 77 80 83 85 87 88 89
36 33 30 27 25 25 22 20 19 19 20 20 15 14 13 15 15 14 17 19 22 24 26 29 33 37 39 41 45 50 55 59 63 67 71 74 77 81 84 86 87 87 87 87
36 33 30 27 25 24 23 21 20 17 17 16 14 11 10 10 10 10 12 15 18 22 26 30 33 35 38 41 46 52 57 63 67 70 73 76 79 82 84 86 89 90 89 86
41 39 35 31 28 24 24 24 23 21 18 17 14 11 7 5 7 9 11 14 19 22 24 26 29 34 39 43 48 53 57 59 63 67 73 78 81 84 87 90 92 92 91 89
41 36 33 32 29 27 25 25 24 23 20 16 13 8 4 1 3 5 9 13 14 16 19 23 27 32 37 41 47 52 57 63 69 74 77 79 83 86 88 91 94 95 96 93
40 38 36 34 32 31 27 25 25 24 21 18 14 10 6 3 2 6 9 9 10 13 17 21 26 32 37 44 52 59 64 68 72 76 80 84 88 91 94 96 97 98 97 92
41 39 35 33 30 27 27 28 28 27 25 20 15 11 7 2 4 7 7 6 8 12 17 24 30 36 43 50 56 61 66 72 77 82 86 90 94 98 100 102 103 102 98 93
43 41 38 37 35 33 31 30 27 23 19 15 12 7 5 4 5 6 4 4 8 14 21 28 33 39 45 52 59 66 73 78 81 87 91 95 100 103 105 107 107 105 99 90
Wind_Direction_500mb
296 283 274 31 7 16 22 351 22 34 42 354 343 4 49 63 75 82 84 102 118 135 144 156 159 163 172 180 181 191 192 186 181 184 167 149 132 136 144 139 160 217 191 205
290 280 337 45 10 5 26 11 1 5 42 4 354 50 61 63 71 76 77 87 97 107 110 112 115 110 111 116 123 114 121 115 111 109 117 118 124 125 148 174 171 198 221 236
295 329 320 34 10 355 27 25 354 10 9 11 34 48 46 63 70 74 78 83 93 98 98 100 98 98 97 99 100 96 95 94 95 101 113 129 147 164 176 196 205 216 234 251
296 315 44 61 17 359 351 26 14 9 7 21 60 62 48 50 64 68 73 78 82 93 96 96 101 97 99 96 98 105 106 111 114 122 133 135 161 179 185 194 215 241 257 269
320 321 344 357 355 343 346 25 10 5 10 25 72 72 41 44 65 74 80 89 92 96 100 105 103 110 109 104 100 98 94 90 89 88 94 109 124 156 194 230 264 280 289 296
312 26 15 350 337 332 303 32 356 6 19 26 41 70 33 47 79 84 86 88 91 93 96 96 93 99 101 90 87 78 67 64 64 70 78 87 87 58 300 297 301 307 309 312
358 31 52 351 336 342 47 334 346 13 32 46 55 64 67 80 78 82 86 90 92 90 83 80 80 82 82 82 73 63 61 62 61 59 56 52 43 27 4 348 340 333 331 330
348 24 10 349 353 42 342 15 13 29 38 57 66 72 78 82 82 82 82 82 82 84 82 82 83 83 80 74 68 63 59 59 58 53 46 37 26 16 6 357 351 347 347 349
25 47 26 2 21 29 35 32 31 48 52 66 71 71 74 76 78 80 81 82 82 80 79 75 71 69 68 65 63 58 52 52 52 47 44 39 33 29 22 14 6 359 352 346
204 19 58 29 30 31 37 36 51 56 67 74 78 80 82 81 78 78 77 76 78 79 76 71 66 65 66 64 61 55 52 50 49 46 42 36 28 22 13 6 0 354 348 343
73 39 162 30 21 22 49 66 67 76 76 74 81 80 81 81 78 77 77 75 73 71 70 69 66 66 65 62 57 54 50 47 40 34 30 25 19 17 15 9 4 358 352 347
74 31 28 29 17 46 71 72 77 75 77 80 82 84 85 83 82 80 78 77 75 73 71 68 65 63 60 55 48 44 40 36 31 25 21 18 16 17 17 13 8 5 2 1
72 37 81 51 51 69 81 82 80 80 80 85 87 88 88 89 86 83 80 76 72 69 67 66 63 60 55 48 40 35 33 30 25 22 18 16 12 9 8 15 17 9 359 356
159 122 65 70 84 81 84 87 85 84 86 92 91 90 88 86 87 81 76 74 73 71 68 62 58 54 49 41 36 33 31 29 27 25 24 22 18 14 9 6 5 5 7 2
155 149 131 128 115 102 91 87 93 89 91 95 94 92 92 91 88 85 85 83 79 74 70 62 55 51 43 35 30 26 25 24 22 18 16 16 17 18 17 16 10 6 1 358
151 142 141 146 141 134 132 123 118 111 110 105 99 94 91 87 85 86 83 79 72 63 58 53 50 48 39 38 37 37 39 38 38 36 33 30 24 19 15 10 5 2 358 353
159 156 159 153 143 140 140 127 120 119 117 117 116 111 106 103 99 91 82 73 67 65 62 54 53 47 41 41 43 45 42 38 35 31 25 21 17 13 7 3 360 357 354 354
178 178 173 171 159 158 151 140 131 132 129 119 109 108 105 98 88 83 78 72 69 61 54 51 50 46 43 42 40 39 36 32 27 22 18 13 10 6 1 358 356 355 353 352
183 181 173 166 162 157 147 138 134 130 120 114 115 117 109 98 90 86 82 72 60 56 54 48 40 41 41 36 32 32 27 22 18 14 10 6 3 360 358 356 354 351 349 347
173 167 165 164 156 151 149 145 138 131 129 125 129 123 109 97 91 84 71 50 46 46 43 41 40 41 36 32 26 23 18 13 10 7 3 360 357 355 353 351 349 347 345 343
173 172 172 172 167 161 157 152 147 145 140 136 133 129 117 104 86 62 47 41 46 45 43 44 39 33 29 24 18 14 11 9 6 3 1 358 356 354 352 350 346 343 341 341
175 175 175 174 172 169 162 154 147 150 148 146 143 131 108 95 85 64 54 49 47 46 46 40 32 26 21 15 13 11 9 7 4 1 358 355 353 351 348 346 344 342 340 339
179 180 178 176 176 174 169 164 162 161 160 158 157 149 133 87 48 41 37 43 45 48 41 32 24 18 13 10 9 8 5 1 358 356 355 353 350 347 345 343 341 339 338 340
180 177 178 179 179 179 179 172 170 169 170 172 168 163 157 80 30 36 39 42 49 44 32 21 12 7 5 5 3 1 358 356 354 352 348 345 343 340 338 337 338 338 337 336
183 184 185 186 184 181 181 180 180 181 181 181 185 197 221 248 330 24 24 36 40 26 16 6 1 0 0 359 357 355 352 349 346 343 341 339 337 335 334 333 332 333 331 329
189 189 190 189 190 191 190 192 191 191 189 191 201 216 230 260 358 352 359 18 13 4 356 354 354 355 354 352 349 346 344 342 340 339 336 334 333 332 331 330 329 329 328 326
192 194 195 195 195 194 198 200 200 200 204 211 223 235 252 272 300 324 317 325 342 343 343 345 347 347 344 343 342 341 340 338 336 334 333 332 332 330 329 328 328 327 326 324
Wind_Speed_850mb
36 35 24 26 48 42 35 27 16 20 17 27 27 17 20 29 34 53 51 43 38 39 37 34 33 29 29 29 27 25 30 25 24 22 21 26 38 40 44 43 26 16 23 30
10 10 20 14 51 39 45 40 23 23 19 26 29 31 38 41 46 57 57 57 49 50 48 41 42 38 32 30 33 34 40 45 49 48 51 53 47 33 22 26 32 37 32 29
13 27 27 6 46 30 21 39 24 19 16 21 34 36 39 48 59 61 62 66 65 63 66 61 67 68 66 68 72 81 71 64 54 44 37 34 29 28 31 27 22 20 21 24
13 24 8 9 34 19 25 47 54 35 26 22 30 71 86 71 67 70 73 75 76 79 85 81 79 87 72 60 57 57 53 46 37 27 23 20 18 19 18 17 16 15 18 22
9 12 3 25 41 22 19 32 55 42 36 23 32 93 85 80 83 84 89 90 87 79 79 74 73 66 60 53 46 41 33 24 22 19 20 14 9 9 11 12 13 19 25 29
9 10 19 29 53 78 15 33 58 51 39 36 32 46 19 65 84 87 86 87 79 76 72 67 56 49 47 43 38 34 32 31 25 20 14 11 7 2 7 13 18 21 23 26
20 10 8 41 65 41 22 15 56 55 46 55 35 31 37 79 86 83 80 77 71 66 64 58 49 42 46 47 47 43 38 32 28 25 22 19 17 13 12 16 20 24 27 29
12 14 14 71 28 19 19 38 42 53 52 56 61 74 83 85 81 77 75 70 66 63 64 57 54 52 56 57 48 40 33 30 29 26 25 22 21 20 21 22 24 25 26 26
14 8 13 30 29 41 41 32 43 43 44 48 61 68 73 77 76 76 75 72 68 67 62 59 57 54 55 53 43 37 31 34 35 34 34 33 31 31 30 30 32 36 38 40
3 13 16 39 34 37 37 36 34 40 45 53 65 67 73 70 70 70 69 68 64 60 62 63 58 54 54 47 42 39 37 38 38 36 35 34 34 36 38 39 42 45 49 53
6 10 5 32 34 27 26 34 42 45 48 49 56 60 62 64 64 64 62 59 58 60 59 58 51 50 48 45 41 39 38 38 37 37 37 38 39 42 43 43 45 48 50 52
6 9 7 12 21 21 28 35 37 39 46 48 51 55 57 61 59 58 57 54 55 56 55 54 50 49 47 45 42 41 38 40 42 41 40 40 40 38 41 46 47 49 52 54
5 5 9 11 23 25 29 32 34 38 42 43 47 50 53 56 53 52 52 52 53 54 51 48 46 46 46 44 41 41 42 41 40 42 45 47 49 52 52 47 46 49 52 56
3 7 7 6 10 22 27 30 31 35 38 42 43 43 44 47 46 47 50 49 45 43 43 42 41 44 46 44 45 45 45 46 48 50 51 52 52 53 55 58 63 62 58 63
9 8 14 18 17 18 20 21 23 32 34 37 35 38 37 40 44 45 42 39 37 37 39 39 41 44 43 42 42 42 42 44 46 46 47 45 46 47 47 51 54 62 69 70
20 22 22 22 24 20 17 20 22 30 29 31 29 31 33 35 38 38 37 34 30 35 36 34 33 35 33 33 35 36 36 35 35 37 41 46 48 53 58 60 65 72 76 79
31 25 25 24 23 20 18 19 20 24 27 27 28 30 31 32 33 33 33 31 31 31 32 31 37 35 35 33 33 36 41 44 47 50 53 57 60 63 64 68 71 75 78 82
23 19 22 19 23 22 23 22 23 24 25 26 27 27 26 27 29 29 27 24 23 25 30 34 32 31 35 39 40 44 47 51 54 56 59 60 63 66 68 72 77 81 86 88
29 29 29 28 25 24 23 23 23 24 23 23 22 21 21 23 24 23 21 18 21 25 30 33 34 36 38 42 45 48 50 51 54 57 61 65 68 71 75 80 84 87 90 92
33 32 29 27 26 21 21 23 22 21 22 20 17 16 17 19 20 18 17 18 25 30 31 30 30 34 39 42 43 47 52 57 61 65 68 70 73 77 80 83 85 87 88 89
36 33 30 27 25 25 22 20 19 19 20 20 15 14 13 15 15 14 17 19 22 24 26 29 33 37 39 41 45 50 55 59 63 67 71 74 77 81 84 86 87 87 87 87
36 33 30 27 25 24 23 21 20 17 17 16 14 11 10 10 10 10 12 15 18 22 26 30 33 35 38 41 46 52 57 63 67 70 73 76 79 82 84 86 89 90 89 86
41 39 35 31 28 24 24 24 23 21 18 17 14 11 7 5 7 9 11 14 19 22 24 26 29 34 39 43 48 53 57 59 63 67 73 78 81 84 87 90 92 92 91 89
41 36 33 32 29 27 25 25 24 23 20 16 13 8 4 1 3 5 9 13 14 16 19 23 27 32 37 41 47 52 57 63 69 74 77 79 83 86 88 91 94 95 96 93
40 38 36 34 32 31 27 25 25 24 21 18 14 10 6 3 2 6 9 9 10 13 17 21 26 32 37 44 52 59 64 68 72 76 80 84 88 91 94 96 97 98 97 92
41 39 35 33 30 27 27 28 28 27 25 20 15 11 7 2 4 7 7 6 8 12 17 24 30 36 43 50 56 61 66 72 77 82 86 90 94 98 100 102 103 102 98 93
43 41 38 37 35 33 31 30 27 23 19 15 12 7 5 4 5 6 4 4 8 14 21 28 33 39 45 52 59 66 73 78 81 87 91 95 100 103 105 107 107 105 99 90
Wind_Direction_850mb
296 283 274 31 7 16 22 351 22 34 42 354 343 4 49 63 75 82 84 102 118 135 144 156 159 163 172 180 181 191 192 186 181 184 167 149 132 136 144 139 160 217 191 205
290 280 337 45 10 5 26 11 1 5 42 4 354 50 61 63 71 76 77 87 97 107 110 112 115 110 111 116 123 114 121 115 111 109 117 118 124 125 148 174 171 198 221 236
295 329 320 34 10 355 27 25 354 10 9 11 34 48 46 63 70 74 78 83 93 98 98 100 98 98 97 99 100 96 95 94 95 101 113 129 147 164 176 196 205 216 234 251
296 315 44 61 17 359 351 26 14 9 7 21 60 62 48 50 64 68 73 78 82 93 96 96 101 97 99 96 98 105 106 111 114 122 133 135 161 179 185 194 215 241 257 269
320 321 344 357 355 343 346 25 10 5 10 25 72 72 41 44 65 74 80 89 92 96 100 105 103 110 109 104 100 98 94 90 89 88 94 109 124 156 194 230 264 280 289 296
312 26 15 350 337 332 303 32 356 6 19 26 41 70 33 47 79 84 86 88 91 93 96 96 93 99 101 90 87 78 67 64 64 70 78 87 87 58 300 297 301 307 309 312
358 31 52 351 336 342 47 334 346 13 32 46 55 64 67 80 78 82 86 90 92 90 83 80 80 82 82 82 73 63 61 62 61 59 56 52 43 27 4 348 340 333 331 330
348 24 10 349 353 42 342 15 13 29 38 57 66 72 78 82 82 82 82 82 82 84 82 82 83 83 80 74 68 63 59 59 58 53 46 37 26 16 6 357 351 347 347 349
25 47 26 2 21 29 35 32 31 48 52 66 71 71 74 76 78 80 81 82 82 80 79 75 71 69 68 65 63 58 52 52 52 47 44 39 33 29 22 14 6 359 352 346
204 19 58 29 30 31 37 36 51 56 67 74 78 80 82 81 78 78 77 76 78 79 76 71 66 65 66 64 61 55 52 50 49 46 42 36 28 22 13 6 0 354 348 343
73 39 162 30 21 22 49 66 67 76 76 74 81 80 81 81 78 77 77 75 73 71 70 69 66 66 65 62 57 54 50 47 40 34 30 25 19 17 15 9 4 358 352 347
74 31 28 29 17 46 71 72 77 75 77 80 82 84 85 83 82 80 78 77 75 73 71 68 65 63 60 55 48 44 40 36 31 25 21 18 16 17 17 13 8 5 2 1
72 37 81 51 51 69 81 82 80 80 80 85 87 88 88 89 86 83 80 76 72 69 67 66 63 60 55 48 40 35 33 30 25 22 18 16 12 9 8 15 17 9 359 356
159 122 65 70 84 81 84 87 85 84 86 92 91 90 88 86 87 81 76 74 73 71 68 62 58 54 49 41 36 33 31 29 27 25 24 22 18 14 9 6 5 5 7 2
155 149 131 128 115 102 91 87 93 89 91 95 94 92 92 91 88 85 85 83 79 74 70 62 55 51 43 35 30 26 25 24 22 18 16 16 17 18 17 16 10 6 1 358
151 142 141 146 141 134 132 123 118 111 110 105 99 94 91 87 85 86 83 79 72 63 58 53 50 48 39 38 37 37 39 38 38 36 33 30 24 19 15 10 5 2 358 353
159 156 159 153 143 140 140 127 120 119 117 117 116 111 106 103 99 91 82 73 67 65 62 54 53 47 41 41 43 45 42 38 35 31 25 21 17 13 7 3 360 357 354 354
178 178 173 171 159 158 151 140 131 132 129 119 109 108 105 98 88 83 78 72 69 61 54 51 50 46 43 42 40 39 36 32 27 22 18 13 10 6 1 358 356 355 353 352
183 181 173 166 162 157 147 138 134 130 120 114 115 117 109 98 90 86 82 72 60 56 54 48 40 41 41 36 32 32 27 22 18 14 10 6 3 360 358 356 354 351 349 347
173 167 165 164 156 151 149 145 138 131 129 125 129 123 109 97 91 84 71 50 46 46 43 41 40 41 36 32 26 23 18 13 10 7 3 360 357 355 353 351 349 347 345 343
173 172 172 172 167 161 157 152 147 145 140 136 133 129 117 104 86 62 47 41 46 45 43 44 39 33 29 24 18 14 11 9 6 3 1 358 356 354 352 350 346 343 341 341
175 175 175 174 172 169 162 154 147 150 148 146 143 131 108 95 85 64 54 49 47 46 46 40 32 26 21 15 13 11 9 7 4 1 358 355 353 351 348 346 344 342 340 339
179 180 178 176 176 174 169 164 162 161 160 158 157 149 133 87 48 41 37 43 45 48 41 32 24 18 13 10 9 8 5 1 358 356 355 353 350 347 345 343 341 339 338 340
180 177 178 179 179 179 179 172 170 169 170 172 168 163 157 80 30 36 39 42 49 44 32 21 12 7 5 5 3 1 358 356 354 352 348 345 343 340 338 337 338 338 337 336
183 184 185 186 184 181 181 180 180 181 181 181 185 197 221 248 330 24 24 36 40 26 16 6 1 0 0 359 357 355 352 349 346 343 341 339 337 335 334 333 332 333 331 329
189 189 190 189 190 191 190 192 191 191 189 191 201 216 230 260 358 352 359 18 13 4 356 354 354 355 354 352 349 346 344 342 340 339 336 334 333 332 331 330 329 329 328 326
192 194 195 195 195 194 198 200 200 200 204 211 223 235 252 272 300 324 317 325 342 343 343 345 347 347 344 343 342 341 340 338 336 334 333 332 332 330 329 328 328 327 326 324